Starlink 1029

decayed
NORAD ID: 44734 Int'l Des: 2019-074 Owner: SPXS Country: US Constellation: starlink
LEOCIRCULAR

关于 Starlink 1029

正在加载描述...

高度历史

Altitude vs Time

uPlot chart will show altitude changes over time

两行轨道根数

1 44734U 19074X 25291.64177550 .11060745 12403-4 37430-3 0 9995
2 44734 53.0381 311.3623 0004927 194.8650 165.2254 16.44399455329456
Epoch: Oct 18, 2025 • Age: 389 hours

当前状态

Position data unavailable
发射日期 Nov 11, 2019
运行时间 5.9 years
衰减日期 Oct 18, 2025
类型 internet

技术详情

分类 Payload
质量 260.00 kg
干质量 248.00 kg
总质量 260.00 kg
长度 0.20 m
直径 2.80 m
跨度 9.00 m
形状 Box + pan
制造商 SPXS
平台类型 Starlink
阶段状态 Reentered
所有者/国家 SPXS/US

大型星座

Loading constellations...